Regional Weather Roundup
Issued by NWS

Home | Current Version | Previous Version | Text Only | Print | Product List | Glossary On
Versions: 1 2 3 4 5 6 7 8 9 10 11 12 13 14 15 16 17 18 19 20 21 22 23 24 25 26 27 28 29 30 31 32 33 34 35 36 37 38 39 40 41 42 43 44 45 46 47 48 49 50
000
ASUS42 KTBW 230310
RWRFL
FLORIDA REGIONAL WEATHER ROUNDUP
NATIONAL WEATHER SERVICE TAMPA BAY RUSKIN FL
1100 PM EDT MON SEP 22 2014

NOTE: "FAIR" INDICATES FEW OR NO CLOUDS BELOW 12,000 FEET WITH NO
SIGNIFICANT WEATHER AND/OR OBSTRUCTIONS TO VISIBILITY.


FLZ001>010-012>015-112-114-115-230400-
PANHANDLE FLORIDA

CITY           SKY/WX    TMP DP  RH WIND       PRES   REMARKS
PENSACOLA      CLEAR     71  66  84 NE3       30.03S
PENSACOLA NAS  CLEAR     71  62  73 NE6       30.03R
MILTON NAS     CLEAR     65  60  84 N6        30.04S
CRESTVIEW      CLEAR     65  64  97 CALM      30.06R FOG
DUKE FIELD     CLEAR     67  67 100 N1        30.04S
VALPARAISO     CLEAR     70  67  89 N3        30.03S
MARY ESTHER    CLEAR     70  65  82 NE6       30.02S
TRI COUNTY     FAIR      65  65 100 MISG      30.04S
PANAMA CITY    MOCLDY    70  66  87 N3        30.02R
TYNDALL AFB    CLEAR     72  67  84 NE8       30.02S
APALACHICOLA   PTCLDY    74  68  81 NE8       30.00R

STATION/POSITION SKY/WX   TEMP    WIND        PRES    WAVE   SWELL
                          AIR SEA DIR/SP/G            HT/PER HT/PER
                          (F)     (DEG/KT/KT) (MB)    (FT/S) (FT/S)
30.1N   87.6W              80 85   50/ 16/ 17 1016.6R   3/ 4
29.2N   88.2W              81 84   50/ 16/ 17 1016.2R   2/ 5
28.8N   86.0W              81 84   70/  6/  6 1015.1R   2/ 5   2/ 5
PANAMA CITY BEAC           73 85   40/  8/ 13 1016.5S
CAPE SAN BLAS    NOT AVBL
TOWER C                    78      30/ 17/ 18 1015.2R
28.5N   84.5W              81 84  160/  2/  2 1014.8R   2/ 6   2/ 6

$$
FLZ011-016>038-118-127-128-134-139-239-230400-
NORTH FLORIDA

CITY           SKY/WX    TMP DP  RH WIND       PRES   REMARKS
MARIANNA       PTCLDY    68  68 100 N3        30.02S
TALLAHASSEE    PTCLDY    75  66  73 N9        30.01S
PERRY          MOCLDY    73  64  73 NE3       30.00F
CROSS CITY       N/A     73  70  90 S5        29.99S
LAKE CITY      FAIR      70  70 100 CALM      30.03R
GAINESVILLE    CLOUDY    72  70  93 E6        30.02R
MAYPORT NAS    CLOUDY    77  71  82 SE16      30.03R
JACKSONVILLE   CLOUDY    75  69  81 CALM      30.03R
JAX NAS        CLOUDY    79  71  76 E9        30.03R
JAX CRAIG      CLOUDY    76  70  82 S9        30.03R
JAX CECIL      CLOUDY    72  70  94 CALM      30.03S
ST AUGUSTINE   LGT RAIN  74  72  93 SW6       30.03F

STATION/POSITION SKY/WX   TEMP    WIND        PRES    WAVE   SWELL
                          AIR SEA DIR/SP/G            HT/PER HT/PER
                          (F)     (DEG/KT/KT) (MB)    (FT/S) (FT/S)
SHELL POINT                76      20/  6/  9   N/A
KEATON BEACH               73     110/  9/ 12 1016.0R
CEDAR KEY                  77     160/ 12/ 14 1016.3R
FERNANDINA                 78 82  190/  4/  5 1016.3S
30.7N   81.3W                 83                N/A     3/ 4
MAYPORT                    76 83  160/  8/ 17   N/A
31.4N   80.9W              78 83   30/ 17/ 21 1017.3R   3/ 4   2/ 8
ST AUGUSTINE               75     160/  3/  4 1017.2F

$$
FLZ040-043>046-052-053-057-058-063-144-230400-
INTERIOR CENTRAL FLORIDA

CITY           SKY/WX    TMP DP  RH WIND       PRES   REMARKS
OCALA          CLOUDY    73  70  88 S5        30.02F
THE VILLAGES     N/A     73  72  94 CALM      29.91F
LEESBURG       CLOUDY    74  71  91 W3        30.01F
SANFORD        CLOUDY    73  70  90 CALM      30.01F
ORLANDO EXEC   CLOUDY    73  71  93 E5        30.00F
ORLANDO INTL   CLOUDY    72  72 100 SE3       30.00F
WINTER HAVEN   CLOUDY    73  71  93 E3        30.00F
LAKELAND       CLOUDY   N/A N/A N/A SE5       29.99F
BARTOW         FAIR      72 N/A N/A E5        30.01S
OKEECHOBEE       N/A     72  72 100 MISG      30.02S

$$
FLZ041-047-054-059-064-141-147-230400-
EAST CENTRAL FLORIDA

CITY           SKY/WX    TMP DP  RH WIND       PRES   REMARKS
DAYTONA BEACH  CLOUDY    72  70  93 CALM      30.02F
DELAND         CLOUDY    72  70  94 CALM      30.02F
JFK SPACE CTR  CLOUDY    71  70  94 SE5       30.02F
CAPE CANAVERAL CLOUDY    71  69  96 E3        30.01F
PATRICK AFB    CLOUDY    73  71  93 NE2       30.02F
MELBOURNE      CLOUDY    73  69  87 CALM      30.02F
VERO BEACH     CLOUDY    70  68  93 CALM      30.02F
FT PIERCE      CLOUDY    72  69  90 CALM      30.02F
STUART         CLOUDY    72  70  94 CALM      30.03S

STATION/POSITION SKY/WX   TEMP    WIND        PRES    WAVE   SWELL
                          AIR SEA DIR/SP/G            HT/PER HT/PER
                          (F)     (DEG/KT/KT) (MB)    (FT/S) (FT/S)
28.5N   80.2W              77 84  230/  6/  8 1017.4R
28.9N   78.5W              80 84  240/  4/  6 1017.4R   3/ 9   3/ 9
TRIDENT PIER               71 84   20/  2/  3 1016.1F
28.4N   80.5W                 83                N/A     2/ 8
27.6N   80.2W                 83                N/A     3/10   2/11

$$
FLZ050-056-061-142-242-148-248-149-249-151-251-155-255-
160-260-230400-
WEST CENTRAL FLORIDA

CITY           SKY/WX    TMP DP  RH WIND       PRES   REMARKS
CRYSTAL RIVER  CLOUDY    73  72  94 E3        30.00F
INVERNESS      FAIR      72  68  88 CALM      30.01F
BROOKSVILLE    LGT RAIN  73  72  96 NE6       30.01S
ZEPHYRHILLS    FAIR      66  66 100 CALM      30.00S
CLEARWATER     CLOUDY    75  73  93 S5        29.99R
TAMPA INTL     CLOUDY    74  71  91 SE5       29.99S
TAMPA EXEC     CLOUDY    73  72  94 S3        30.00R
PLANT CITY     CLOUDY    73 N/A N/A SE5       30.01S
MACDILL AFB    CLOUDY    73  73 100 SE5       29.99S
ST PETERSBURG  CLOUDY    76  72  87 S8        29.98R
SARASOTA       MOCLDY    72  71  97 E6        29.98S
VENICE           N/A    N/A N/A N/A MISG        N/A

STATION/POSITION SKY/WX   TEMP    WIND        PRES    WAVE   SWELL
                          AIR SEA DIR/SP/G            HT/PER HT/PER
                          (F)     (DEG/KT/KT) (MB)    (FT/S) (FT/S)
CEDAR KEY                  77     160/ 12/ 14 1016.3R
28.5N   84.5W              81 84  160/  2/  2 1014.8R   2/ 6   2/ 6
27.3N   84.3W                 84                N/A     2/ 5
CLEARWATER BEACH NOT AVBL
MIDDLE TAMPA BAY           75     130/  6/  7 1016.0R
VENICE                     73 84  100/  7/ 10 1015.4F

$$
FLZ066-069-070-075>078-162-262-165-265-230400-
SOUTHWEST FLORIDA AND KEYS

CITY           SKY/WX    TMP DP  RH WIND       PRES   REMARKS
PUNTA GORDA    MOCLDY    73  72  96 NE3       30.03R
FT MYERS       CLOUDY    73  72  96 CALM      30.00S
SOUTHWEST INTL MOCLDY    73  71  93 E3        30.01S
NAPLES         MOCLDY    75  72  90 NE5       30.00F
MARCO ISLAND   CLOUDY    75  72  88 NE7       29.99F
MARATHON       CLEAR     82  77  84 NE6       29.98F
KEY WEST NAS   CLEAR     82  75  79 NE6       29.98F THUNDER
KEY WEST INTL  CLEAR     83  73  72 E6        29.99F

STATION/POSITION SKY/WX   TEMP    WIND        PRES    WAVE   SWELL
                          AIR SEA DIR/SP/G            HT/PER HT/PER
                          (F)     (DEG/KT/KT) (MB)    (FT/S) (FT/S)
VENICE                     73 84  100/  7/ 10 1015.4F
NAPLES                     75 88   70/  3/  4 1016.5F
DRY TORTUGAS               80      60/ 13/ 13 1015.7R
NW FL BAY                  83      10/  4/  5 1015.8R
SAND KEY                   83      70/  8/ 10 1015.3F
SOMBRERO KEY               83      70/  9/ 10 1015.8F
LONG KEY                   82 85   60/  6/  7 1016.4R
MOLASSES REEF              83 85   10/  6/  7 1015.6R

$$
FLZ067-068-071>074-168-172>174-230400-
SOUTHEAST FLORIDA

CITY           SKY/WX    TMP DP  RH WIND       PRES   REMARKS
W PALM BEACH   MOCLDY    75  74  96 N5        30.01R THUNDER
FT LAUDER-EXEC MOCLDY    76  76 100 NW3       30.01S
FT LAUDERDALE  MOCLDY    78  75  90 N7        30.00S THUNDER
POMPANO BEACH  MOCLDY    78  75  90 NW3       30.00F
PEMBROKE PINES PTCLDY    77  75  93 NW8       30.02R
OPA LOCKA      PTCLDY    77  74  90 N9        30.01R
MIAMI          MOCLDY    78  75  90 NW6       30.01R
WEST KENDALL   PTCLDY    80  73  79 N7        30.00S
HOMESTEAD      PTCLDY    79  74  86 N6        30.00R

STATION/POSITION SKY/WX   TEMP    WIND        PRES    WAVE   SWELL
                          AIR SEA DIR/SP/G            HT/PER HT/PER
                          (F)     (DEG/KT/KT) (MB)    (FT/S) (FT/S)
PORT EVERGLADES            77     330/  4/  6 1016.0
VIRGINIA KEY               81 85  360/  5/  6   N/A
LAKE WORTH                 76 85  330/  5/  6 1016.0F
FOWEY ROCKS                83 85   70/  8/  8 1015.8F
SETTLEMENT POINT           83     110/  8/ 10 1016.6F

$$




USA.gov is the U.S. government's official web portal to all federal, state and local government web resources and services.